Location: Recife
(8.0585°S, 34.8848°W)
Time: 12:41:36
(UTC-03:00)

Vanguard 2 Rocket - Pass Details

Date: 15 April 2026
Orbit: 553 x 3286 km, 32.9° (Epoch: 7 May)

Event Time Altitude Azimuth Distance (km) Brightness Sun altitude
Rises 14:00:31 0° 235° (SW) 7,046 11.7 46.1°
Reaches altitude 10° 14:05:03 10° 234° (SW) 6,159 11.6 45.0°
Maximum altitude 14:25:36 86° 145° (SE) 3,061 10.2 40.3°
Drops below altitude 10° 14:41:05 10° 57° (ENE) 4,851 10.4 36.7°
Sets 14:44:10 0° 56° (ENE) 5,556 10.6 36.0°
